K5LRY-13 Weather Reports


Display with metric or nautical units.
time (UTC)temp
F
wind
direction
speed
MPH
gust
MPH
rain 1hr
in
rain 24hr
in
rain mn
in
humidity
%
barometer
mb
20260510220339 72 267 5.0 10.0 0.00 0.00 0.00 6 1030.2
20260510214833 73 276 6.0 12.0 0.00 0.00 0.00 7 1030.4
20260510213328 71 231 4.0 13.0 0.00 0.00 0.00 7 1030.5
20260510211825 71 260 5.0 13.0 0.00 0.00 0.00 8 1030.4
20260510210318 70 177 6.0 16.0 0.00 0.00 0.00 7 1030.4
20260510204826 70 199 4.0 16.0 0.00 0.00 0.00 7 1030.4
20260510203321 70 288 5.0 12.0 0.00 0.00 0.00 7 1030.5
20260510201836 70 264 6.0 14.0 0.00 0.00 0.00 7 1030.7
20260510200329 70 242 4.0 11.0 0.00 0.00 0.00 10 1030.7
20260510194823 69 202 5.0 15.0 0.00 0.00 0.00 8 1030.7
20260510193318 69 208 4.0 15.0 0.00 0.00 0.00 9 1030.4
20260510191811 69 280 4.0 11.0 0.00 0.00 0.00 10 1030.4
20260510190325 69 253 5.0 12.0 0.00 0.00 0.00 7 1030.5
20260510184819 69 166 4.0 11.0 0.00 0.00 0.00 11 1030.4
20260510183314 68 182 5.0 13.0 0.00 0.00 0.00 10 1030.5
20260510181828 67 240 2.0 13.0 0.00 0.00 0.00 12 1030.5
20260510180343 66 276 4.0 12.0 0.00 0.00 0.00 8 1030.4
20260510174815 66 271 6.0 13.0 0.00 0.00 0.00 9 1030.7
20260510173352 65 279 9.0 18.0 0.00 0.00 0.00 8 1030.6
20260510171824 65 244 5.0 11.0 0.00 0.00 0.00 10 1030.4
20260510170317 64 185 5.0 15.0 0.00 0.00 0.00 14 1030.3
20260510164811 64 243 4.0 13.0 0.00 0.00 0.00 14 1030.1
20260510163327 63 198 6.0 10.0 0.00 0.00 0.00 12 1030.0
20260510161841 63 263 7.0 14.0 0.00 0.00 0.00 13 1029.9
20260510160314 62 260 5.0 11.0 0.00 0.00 0.00 14 1029.9
20260510154828 61 262 4.0 11.0 0.00 0.00 0.00 14 1029.6
20260510153323 61 271 2.0 10.0 0.00 0.00 0.00 16 1029.5
20260510151836 59 235 7.0 12.0 0.00 0.00 0.00 16 1029.4
20260510150335 57 188 5.0 8.0 0.00 0.00 0.00 22 1029.0
20260510144822 55 283 1.0 7.0 0.00 0.00 0.00 27 1028.9
20260510143317 52 293 0.0 2.0 0.00 0.00 0.00 34 1028.5
20260510141830 47 294 2.0 4.0 0.00 0.00 0.00 43 1028.1
20260510140325 41 295 0.0 0.0 0.00 0.00 0.00 57 1028.4
20260510134819 39 295 0.0 0.0 0.00 0.00 0.00 64 1028.1
20260510133319 38 295 0.0 0.0 0.00 0.00 0.00 66 1028.0
20260510131847 37 295 0.0 0.0 0.00 0.00 0.00 66 1027.8
20260510130324 37 295 0.0 0.0 0.00 0.00 0.00 63 1027.7
20260510124818 37 295 0.0 0.0 0.00 0.00 0.00 64 1027.3
20260510123335 37 295 0.0 0.0 0.00 0.00 0.00 60 1027.3
20260510121828 37 295 0.0 0.0 0.00 0.00 0.00 59 1027.3
20260510120322 37 295 0.0 0.0 0.00 0.00 0.00 59 1027.2
20260510114816 38 295 0.0 0.0 0.00 0.00 0.00 57 1026.9
20260510113333 38 295 0.0 1.0 0.00 0.00 0.00 55 1027.1
20260510111825 39 295 0.0 3.0 0.00 0.00 0.00 54 1027.2
20260510110320 40 295 0.0 0.0 0.00 0.00 0.00 53 1027.1
20260510104824 40 295 0.0 0.0 0.00 0.00 0.00 51 1027.1
20260510103320 41 295 0.0 0.0 0.00 0.00 0.00 46 1027.0
20260510101833 42 295 0.0 0.0 0.00 0.00 0.00 45 1026.9
20260510100327 43 295 0.0 0.0 0.00 0.00 0.00 44 1026.8
20260510094842 45 295 0.0 0.0 0.00 0.00 0.00 41 1026.8
20260510093337 46 295 0.0 0.0 0.00 0.00 0.00 39 1026.8
20260510091835 47 295 0.0 2.0 0.00 0.00 0.00 37 1026.6
20260510090322 49 295 0.0 3.0 0.00 0.00 0.00 32 1026.4
20260510084817 51 295 0.0 0.0 0.00 0.00 0.00 29 1026.4
20260510083313 53 295 0.0 2.0 0.00 0.00 0.00 25 1026.4
20260510081833 54 330 1.0 4.0 0.00 0.00 0.00 23 1026.5
20260510080319 50 166 3.0 8.0 0.00 0.00 0.00 27 1026.4
20260510074814 48 133 0.0 7.0 0.00 0.00 0.00 35 1026.4
20260510073330 47 106 0.0 1.0 0.00 0.00 0.00 36 1026.5
20260510071823 48 106 0.0 2.0 0.00 0.00 0.00 34 1026.5
20260510070316 49 106 0.0 4.0 0.00 0.00 0.00 31 1026.5
20260510064831 51 106 1.0 6.0 0.00 0.00 0.00 27 1026.3
20260510063327 52 74 3.0 6.0 0.00 0.00 0.00 27 1026.1
20260510061819 53 74 3.0 9.0 0.00 0.00 0.00 25 1026.0
20260510060322 53 50 3.0 11.0 0.00 0.00 0.00 27 1026.0
20260510054821 51 129 3.0 7.0 0.00 0.00 0.00 28 1026.2
20260510053338 51 149 3.0 6.0 0.00 0.00 0.00 28 1026.1
20260510051838 52 149 1.0 7.0 0.00 0.00 0.00 27 1026.0
20260510050336 53 160 2.0 5.0 0.00 0.00 0.00 27 1025.8
20260510044838 55 160 1.0 7.0 0.00 0.00 0.00 25 1026.1
20260510043321 56 135 2.0 8.0 0.00 0.00 0.00 24 1026.1
20260510041834 56 220 1.0 17.0 0.00 0.00 0.00 23 1026.1
20260510040328 56 87 4.0 8.0 0.00 0.00 0.00 24 1025.9
20260510034822 56 54 3.0 6.0 0.00 0.00 0.00 23 1025.5
20260510033338 58 46 1.0 4.0 0.00 0.00 0.00 23 1025.5
20260510031824 58 82 4.0 8.0 0.00 0.00 0.00 21 1025.4
20260510030345 59 135 2.0 14.0 0.00 0.00 0.00 20 1025.4
20260510024839 60 183 2.0 6.0 0.00 0.00 0.00 20 1025.2
20260510023314 60 165 5.0 11.0 0.00 0.00 0.00 18 1025.1
20260510021827 61 163 4.0 10.0 0.00 0.00 0.00 17 1025.0
20260510020342 62 182 4.0 10.0 0.00 0.00 0.00 15 1024.9
20260510014815 63 188 1.0 10.0 0.00 0.00 0.00 12 1024.7
20260510013331 64 241 4.0 13.0 0.00 0.00 0.00 12 1024.5
20260510011824 66 301 5.0 10.0 0.00 0.00 0.00 12 1024.4
20260510010317 67 219 5.0 10.0 0.00 0.00 0.00 11 1024.4
20260510004811 69 256 5.0 13.0 0.00 0.00 0.00 11 1024.3
20260510003326 70 275 6.0 18.0 0.00 0.00 0.00 11 1024.3
20260510001812 69 274 6.0 18.0 0.00 0.00 0.00 11 1024.6
20260510000328 69 297 6.0 12.0 0.00 0.00 0.00 10 1024.6
20260509234822 68 213 3.0 11.0 0.00 0.00 0.00 12 1024.6
20260509233338 70 285 5.0 11.0 0.00 0.00 0.00 11 1024.8
20260509231836 70 254 7.0 24.0 0.00 0.00 0.00 13 1024.9
20260509230311 68 276 6.0 18.0 0.00 0.00 0.00 12 1024.9
20260509224825 69 276 9.0 23.0 0.00 0.00 0.00 11 1024.9
20260509223325 70 220 7.0 19.0 0.00 0.00 0.00 10 1025.0
20260509221817 71 221 8.0 17.0 0.00 0.00 0.00 12 1025.4